Weather History for KFAT - November, 2012

Change the Weather History Date:

Tuesday, November 13, 2012

  Actual Average Record
Temperature  
Mean Temperature 53 °F 55 °F  
Max Temperature 67 °F 66 °F 83 °F (1986)
Min Temperature 38 °F 44 °F 28 °F (1916)
Degree Days  
Heating Degree Days 12    
Month to date heating degree days 88  
Since 1 July heating degree days 126  
Cooling Degree Days 0    
Month to date cooling degree days 10  
Year to date cooling degree days 2643  
Growing Degree Days 2 (Base 50)    
Moisture  
Dew Point 35 °F    
Average Humidity 54    
Maximum Humidity 79    
Minimum Humidity 29    
Precipitation  
Precipitation 0.00 in 0.03 in 0.94 in (1955)
Month to date precipitation 0.11 0.44  
Year to date precipitation 6.94 9.10  
Since 1 July precipitation 0.36 1.26  
Snow  
Snow 0.00 in - - ()
Month to date snowfall 0.0  
Since 1 July snowfall 0.0  
Since 1 September snowfall 0.0  
Snow Depth 0.00 in    
Sea Level Pressure  
Sea Level Pressure 30.20 in    
Wind  
Wind Speed 1 mph (SSE)    
Max Wind Speed 6 mph    
Max Gust Speed 18 mph    
Visibility 9 miles    
Events      
T = Trace of Precipitation, MM = Missing Value Source: NWS Daily Summary

Daily Weather History Graph

Daily Weather History Graph

Search for Another Location

Airport or City:

Trip Planner

Search our weather history database for the weather conditions in past years. The results will help you decide how hot, cold, wet, or windy it might be!

Date:

Astronomy

Nov. 13, 2012 Rise Set
Actual Time 6:35 AM PST 4:50 PM PST
Civil Twilight 6:07 AM PST 5:18 PM PST
Nautical Twilight 5:36 AM PST 5:49 PM PST
Astronomical Twilight 5:06 AM PST 6:19 PM PST
Moon 6:19 AM PST (11/13) 4:48 PM PST (11/13)
Length of Visible Light 11h 10m
Length of Day
10h 15m
Waning Crescent, 0% of the Moon is Illuminated
Nov 13
Waning Crescent
Nov 13
New
Nov 20
First Quarter
Nov 28
Full
Dec 6
Last Quarter

Hourly Weather History & Observations

Time (PST) Temp. Dew Point Humidity Pressure Visibility Wind Dir Wind Speed Gust Speed Precip Events Conditions
12:53 AM 43.0 °F 34.0 °F 71% 30.29 in 10.0 mi Calm Calm - N/A   Clear
1:53 AM 42.1 °F 34.0 °F 73% 30.27 in 8.0 mi Calm Calm - N/A   Clear
2:53 AM 41.0 °F 34.0 °F 76% 30.27 in 8.0 mi Calm Calm - N/A   Clear
3:53 AM 41.0 °F 34.0 °F 76% 30.26 in 10.0 mi Calm Calm - N/A   Clear
4:53 AM 41.0 °F 33.1 °F 73% 30.27 in 10.0 mi Calm Calm - N/A   Clear
5:53 AM 39.9 °F 33.1 °F 77% 30.27 in 10.0 mi Calm Calm - N/A   Clear
6:53 AM 39.0 °F 33.1 °F 79% 30.27 in 10.0 mi Calm Calm - N/A   Partly Cloudy
7:53 AM 45.0 °F 35.1 °F 68% 30.28 in 10.0 mi Calm Calm - N/A   Scattered Clouds
8:53 AM 50.0 °F 35.1 °F 57% 30.28 in 10.0 mi SE 4.6 mph - N/A   Scattered Clouds
9:53 AM 54.0 °F 35.1 °F 49% 30.27 in 9.0 mi SE 4.6 mph - N/A   Scattered Clouds
10:53 AM 57.9 °F 36.0 °F 44% 30.24 in 9.0 mi Calm Calm - N/A   Scattered Clouds
11:53 AM 62.1 °F 35.1 °F 37% 30.19 in 9.0 mi South 3.5 mph - N/A   Scattered Clouds
12:53 PM 64.0 °F 33.1 °F 31% 30.16 in 9.0 mi West 3.5 mph - N/A   Scattered Clouds
1:53 PM 64.9 °F 34.0 °F 32% 30.13 in 8.0 mi Calm Calm - N/A   Mostly Cloudy
2:53 PM 66.0 °F 33.1 °F 29% 30.12 in 9.0 mi West 5.8 mph - N/A   Mostly Cloudy
3:53 PM 66.9 °F 33.1 °F 28% 30.13 in 9.0 mi Calm Calm - N/A   Mostly Cloudy
4:53 PM 64.0 °F 34.0 °F 33% 30.12 in 10.0 mi Calm Calm - N/A   Mostly Cloudy
5:53 PM 60.1 °F 36.0 °F 41% 30.13 in 10.0 mi Calm Calm - N/A   Mostly Cloudy
6:53 PM 57.0 °F 37.9 °F 49% 30.13 in 10.0 mi Calm Calm - N/A   Mostly Cloudy
7:53 PM 53.1 °F 39.0 °F 59% 30.12 in 9.0 mi Calm Calm - N/A   Mostly Cloudy
8:53 PM 53.1 °F 39.0 °F 59% 30.13 in 8.0 mi Calm Calm - N/A   Mostly Cloudy
9:53 PM 48.9 °F 39.0 °F 69% 30.14 in 6.0 mi ENE 3.5 mph - N/A   Haze
10:53 PM 46.9 °F 37.9 °F 71% 30.14 in 7.0 mi Calm Calm - N/A   Mostly Cloudy
11:53 PM 46.0 °F 36.0 °F 68% 30.15 in 7.0 mi Calm Calm - N/A   Partly Cloudy